sat.trackr.live / text

‹ back to catalog

STARLINK-30496

NORAD 57919 · 2023-147G

PAYLOAD ACTIVE UNKNOWN

§ Identity

Operator
Country
US
Launch date
2023-09-24
Launch site
AFETR
Launch vehicle
Mass (kg)
RCS (m²)

Purposes: comms

External: N2YO · Heavens-Above · Gunter

§ Orbital elements

Epoch: 2026-09-20T10:44:28.656096Z

Period
94.27 min
Inclination
43.0039°
Eccentricity
0.0001442
Mean motion
15.27578957 rev/d
Perigee alt
482.1 km
Apogee alt
484.0 km
Semi-major
6,861.2 km
B*
5.2600e-5
RAAN
305.3244°
Arg perigee
273.1717°
Mean anomaly
86.8970°
Rev number
16,641

§ Raw data

STARLINK-304961 57919U 23147G   26263.44755389  .00001185  00000+0  52600-4 0  99932 57919  43.0039 305.3244 0001442 273.1717  86.8970 15.27578957166414

JSON: /api/v1/satellites/57919 · /tle

For live sub-satellite position, see the globe view (requires WebGL).

§ Visibility from observer

Set your observer location to see the next 7 days of passes ≥ 10°. The values pass through the URL so the page stays shareable.

No JS? Fill the form by hand. The geolocation button needs JavaScript.